Location: Sternwarte ZA, Rosenfeld-Brittheim
(48.2889°N, 8.6789°E)
Time: 09:12:08
(UTC+01:00)

ISS - Visible Passes

Search period start: 19 January 2019 00:00
Search period end: 29 January 2019 00:00
Orbit: 404 x 411 km, 51.6° (Epoch: 19 January)

Date Brightness Start Highest point End Pass type
(mag) Time Alt. Az. Time Alt. Az. Time Alt. Az.
22 Jan -1.4 19:28:54 10° SSW 19:29:54 17° SSW 19:29:54 17° SSW visible
23 Jan -2.1 18:38:14 10° S 18:40:38 19° SE 18:40:55 18° SE visible
23 Jan -0.4 20:13:29 10° WSW 20:13:39 11° WSW 20:13:39 11° WSW visible
24 Jan -1.4 17:48:21 10° SSE 17:49:28 11° SE 17:50:34 10° ESE visible
24 Jan -2.8 19:22:11 10° SW 19:24:35 42° SSW 19:24:35 42° SSW visible
25 Jan -3.0 18:31:02 10° SW 18:34:06 37° SSE 18:35:26 25° E visible
25 Jan -0.8 20:07:17 10° W 20:08:10 17° W 20:08:10 17° W visible
26 Jan -3.8 19:15:47 10° WSW 19:18:56 76° WNW 19:18:56 76° WNW visible
27 Jan -3.8 18:24:23 10° WSW 18:27:40 71° SSE 18:29:40 22° ENE visible
27 Jan -1.2 20:01:07 10° W 20:02:23 20° WNW 20:02:23 20° WNW visible
28 Jan -3.5 19:09:33 10° W 19:12:48 54° NNW 19:13:04 52° N visible
